Theta_e
354 347 345 346 345 346 345 343 339 337 335 330 329 334 339 339 338 337 334 327 328 334 339 342 342 338 340 336 333 326 329 326 323 323 324 324 325 328 341 342 342 335 329
351 347 345 344 345 345 346 344 341 337 335 330 331 336 335 331 333 334 330 329 333 338 340 344 342 339 336 330 323 322 322 322 323 324 324 325 328 331 336 334 333 333 333
351 348 345 343 342 343 344 345 344 338 336 330 331 336 333 331 333 333 332 336 337 339 340 344 342 337 337 329 323 322 325 326 325 325 328 334 333 334 337 336 335 336 337
349 349 346 344 342 340 342 344 345 339 336 331 332 337 332 331 333 336 335 336 337 339 340 342 342 337 331 329 323 326 326 327 331 342 345 345 340 339 338 336 343 342 342
350 350 348 344 341 339 340 343 345 341 337 331 332 337 334 332 337 339 342 343 343 343 343 342 341 332 327 325 323 326 327 333 339 343 346 348 346 341 338 336 341 340 338
353 350 349 344 340 339 340 342 345 342 337 332 332 336 334 330 335 341 348 346 345 344 343 340 332 325 324 323 323 325 328 334 335 339 349 347 346 343 340 336 339 338 336
360 355 353 344 340 339 339 342 344 342 338 333 334 336 334 332 333 341 349 346 345 343 340 334 330 324 324 323 323 325 328 333 336 344 348 348 345 343 342 336 339 335 328
362 360 355 345 340 339 340 342 344 343 339 334 336 336 334 333 332 340 345 346 344 341 338 336 331 325 324 324 325 326 331 335 341 346 350 348 346 344 340 339 337 329 327
362 361 358 351 342 339 340 342 344 343 339 336 338 338 335 334 333 339 343 343 342 340 338 334 329 325 325 324 329 325 332 340 341 342 345 349 346 341 337 338 335 327 326
362 361 360 356 346 340 339 342 343 343 340 338 342 341 337 334 334 337 342 340 341 339 336 335 332 326 326 325 324 332 332 338 339 340 340 346 343 338 338 337 331 326 325
362 362 361 358 349 342 339 342 343 343 341 341 343 344 342 337 336 337 339 338 340 338 336 335 334 327 325 325 325 325 331 338 338 338 343 346 341 337 338 335 329 325 325
357 362 359 355 347 342 342 339 341 343 344 344 344 345 344 341 337 336 336 337 339 338 337 336 335 327 325 324 325 327 334 336 337 336 340 345 338 338 337 332 330 326 327
335 362 358 355 349 345 349 347 341 340 343 344 346 346 346 343 341 340 338 342 345 340 339 338 335 328 324 324 325 327 325 325 326 330 339 342 338 338 337 332 330 328 328
328 358 356 354 353 350 348 347 346 341 336 337 340 344 346 345 346 346 345 342 344 344 341 337 335 331 324 323 328 334 334 328 326 329 338 342 339 338 337 333 331 330 328
322 326 348 358 355 352 351 349 347 345 341 339 339 342 345 344 345 347 344 344 342 341 341 340 336 335 326 325 330 333 334 333 331 331 342 341 340 338 340 335 331 330 329
322 323 333 341 352 357 357 354 349 347 346 345 344 341 341 342 342 345 345 345 344 343 344 342 338 339 335 330 331 333 333 335 333 340 344 342 342 341 341 335 332 331 331
320 321 325 325 324 325 344 355 356 353 353 346 345 344 343 343 340 344 347 344 346 346 346 344 341 341 338 334 333 334 335 335 347 346 345 345 345 343 341 336 333 333 333
321 320 324 324 324 325 327 345 352 352 354 353 350 347 345 344 343 341 347 346 345 349 347 345 343 342 340 335 335 336 336 339 347 346 346 346 345 344 342 338 334 334 335
319 321 321 323 322 323 324 325 328 338 349 353 353 352 347 345 343 340 341 347 343 346 347 346 344 339 340 336 336 336 338 339 344 347 348 347 347 345 343 337 335 335 334
320 321 320 321 321 321 322 322 322 322 322 328 350 347 350 347 346 345 342 346 347 345 346 345 341 340 338 336 336 338 344 345 346 347 347 346 346 340 344 339 336 335 334
322 330 332 330 327 326 325 325 325 324 322 324 330 349 349 349 348 348 347 347 345 346 346 345 341 339 338 337 335 336 349 348 349 348 347 346 346 345 342 340 337 335 332
323 324 324 325 325 323 322 322 324 324 325 325 323 330 345 351 351 350 349 349 346 346 346 345 343 341 339 337 338 344 345 348 348 347 347 347 344 341 339 338 336 329 326
324 324 324 323 326 328 329 329 327 326 330 330 329 328 331 345 352 350 349 348 347 346 346 344 344 341 340 338 336 344 343 344 342 348 346 345 339 337 334 329 326 325 324
322 324 325 326 327 328 328 329 330 330 330 330 332 330 336 342 344 347 348 348 343 335 336 345 344 343 339 338 339 339 345 344 342 341 342 339 337 334 329 326 325 322 319
322 325 325 325 326 325 325 327 326 325 330 333 327 331 338 344 334 334 344 346 347 344 348 346 346 344 342 338 338 341 344 345 343 335 335 333 333 330 327 324 321 320 315
320 321 320 324 321 322 322 323 323 323 325 327 332 336 338 339 343 345 345 343 345 348 347 346 345 345 344 343 341 339 342 343 343 340 334 331 329 331 325 323 321 319 317
Wind_Speed
24 27 22 20 20 19 16 14 13 13 12 11 14 16 17 17 19 21 20 21 21 20 17 15 12 11 11 11 10 10 10 12 14 14 14 13 12 11 11 12 9 7 8
32 27 23 21 19 18 16 14 12 12 12 13 15 17 18 19 20 20 20 20 20 17 14 12 11 11 10 10 10 11 12 13 13 13 13 13 11 10 9 8 7 7 8
31 27 23 21 19 17 15 14 13 12 11 12 15 17 18 19 19 19 18 18 16 15 13 11 10 9 9 9 10 12 12 12 12 12 12 10 9 9 8 7 7 7 7
30 26 23 19 19 17 16 14 14 12 11 13 15 16 18 19 19 18 17 16 14 13 11 10 8 8 7 8 10 12 12 11 10 10 8 4 4 7 6 7 6 7 7
26 24 22 19 17 16 16 16 15 14 13 14 14 16 17 17 17 17 15 14 12 12 11 10 7 7 7 8 10 11 11 9 7 6 1 5 11 5 5 6 6 7 8
21 21 20 20 17 15 15 16 16 15 14 14 14 16 17 18 17 17 14 13 12 11 9 8 6 6 7 8 9 11 9 8 5 0 5 4 16 6 4 5 5 6 8
20 16 17 18 17 16 16 16 17 16 15 15 14 15 17 18 19 17 15 13 11 10 9 8 7 6 7 9 9 10 9 7 3 3 12 13 12 8 3 3 4 7 7
23 18 16 18 17 16 16 17 17 17 16 16 15 15 17 18 19 18 16 13 11 10 10 8 7 7 8 9 10 11 10 8 5 3 6 15 12 6 3 3 5 7 6
26 24 21 21 19 17 17 17 18 18 17 17 16 15 16 18 19 20 18 15 13 12 11 10 9 9 9 10 11 11 10 9 8 4 1 11 11 6 5 3 6 6 5
29 27 25 24 26 23 20 19 19 19 18 18 17 17 17 18 19 20 19 17 15 13 12 11 10 10 10 11 12 13 12 12 11 8 8 14 12 9 5 3 5 4 4
27 31 28 28 30 29 24 20 20 19 20 19 18 17 18 20 21 21 21 19 17 16 14 12 11 11 12 13 14 14 14 14 12 7 9 15 15 10 5 3 3 3 3
16 21 24 23 27 26 24 24 22 20 21 21 21 21 21 21 22 23 23 22 20 19 16 15 14 14 14 15 14 14 15 15 15 9 9 18 14 11 6 3 2 3 3
9 25 28 23 23 26 21 20 22 21 21 21 22 23 23 23 22 23 23 25 23 21 20 19 18 18 18 17 15 15 17 16 18 12 12 18 15 10 5 2 3 4 3
12 20 26 25 23 20 25 28 24 25 26 26 26 24 24 25 25 24 26 27 27 26 24 22 22 20 19 18 19 16 20 15 16 14 19 20 15 8 3 4 5 6 6
10 4 10 17 24 22 21 25 28 26 26 27 27 28 27 26 28 28 29 29 29 28 27 26 24 22 22 22 22 22 19 24 20 18 24 22 16 8 3 6 6 6 7
9 2 10 9 9 13 17 14 20 24 25 27 28 29 32 29 32 28 32 31 31 29 27 28 27 24 22 21 22 24 25 21 24 24 27 22 14 10 6 6 7 7 8
13 8 9 9 7 6 10 16 19 17 16 31 34 32 34 34 34 34 33 33 35 31 29 27 29 28 27 21 20 17 20 15 12 21 20 17 14 14 10 8 9 8 8
14 14 6 6 6 2 7 10 17 22 22 30 21 35 38 37 34 38 32 37 33 31 34 32 31 34 31 29 24 23 19 19 15 17 17 15 16 14 13 12 12 10 8
20 13 11 10 11 9 7 8 9 14 20 25 35 28 31 42 40 39 38 35 32 29 32 32 34 32 29 30 24 24 24 26 19 19 18 15 12 11 10 13 12 12 10
19 15 14 15 16 15 12 12 16 19 24 24 32 30 32 27 37 46 42 38 32 34 32 29 29 28 27 27 23 20 18 19 22 20 19 16 17 11 13 15 14 13 10
8 9 7 8 5 1 4 8 14 21 26 28 31 37 35 35 36 33 32 39 37 37 33 30 31 30 26 24 22 22 5 22 19 17 18 16 14 14 18 17 18 13 9
19 18 15 10 5 7 10 14 16 20 26 30 37 33 37 39 36 35 33 26 38 31 36 32 35 29 31 31 17 8 3 5 11 13 13 16 18 23 20 19 16 14 9
21 15 12 12 12 8 9 13 17 19 24 28 32 36 37 38 40 39 33 33 20 24 24 36 35 35 26 34 34 10 3 4 4 13 17 15 22 20 20 24 20 12 7
13 11 8 8 9 8 10 16 19 22 22 26 32 36 34 37 28 29 24 37 37 34 42 42 38 37 29 24 24 36 11 9 4 2 10 16 20 18 23 19 16 11 8
13 13 13 9 9 10 9 11 17 22 28 30 34 32 30 25 23 35 27 29 38 38 38 41 31 38 34 27 26 20 25 14 15 4 3 5 16 17 17 19 14 10 8
10 8 9 9 4 2 5 6 9 16 23 29 30 32 32 28 16 17 19 28 37 40 40 32 33 29 39 32 25 29 21 13 8 4 3 3 7 9 17 17 14 11 5
Wind_Direction
145 147 147 144 142 142 142 141 135 131 124 123 132 132 128 128 129 129 129 130 129 130 128 126 122 117 115 112 116 115 117 117 116 113 107 102 102 102 90 76 89 59 51
153 152 150 148 146 146 148 147 143 136 131 132 137 136 133 133 134 132 133 133 132 133 131 130 120 117 117 116 121 123 123 120 118 118 112 108 103 96 91 73 73 59 44
151 154 154 152 151 151 153 154 152 148 142 141 142 141 140 139 139 137 136 135 134 136 137 137 128 123 125 125 129 129 128 131 129 118 113 96 107 107 92 75 61 49 36
151 157 159 160 157 157 159 161 159 156 153 152 149 148 147 147 145 143 141 140 140 141 142 142 139 131 135 136 137 137 132 132 131 129 122 116 131 117 96 70 46 32 23
151 160 163 164 165 162 165 167 167 164 164 163 160 156 154 154 150 148 144 142 143 142 144 147 153 144 146 149 148 149 145 150 155 153 163 286 239 143 97 64 37 19 4
147 167 169 169 170 170 170 170 171 170 170 172 166 163 164 163 161 158 150 150 150 150 153 157 156 154 155 159 161 161 166 172 175 198 348 207 196 158 114 66 40 15 359
147 164 170 177 174 176 175 175 177 178 178 178 175 173 173 173 172 168 163 163 161 161 164 165 162 166 168 169 172 175 182 197 229 339 335 207 197 164 106 82 36 12 15
156 161 171 185 185 182 182 181 183 184 186 185 185 182 183 182 181 178 177 177 175 176 175 174 175 174 180 183 183 189 195 216 242 16 10 200 195 170 144 113 40 28 40
167 169 173 181 190 191 188 187 188 190 192 192 192 191 191 191 191 188 186 188 188 184 183 183 183 183 192 192 195 199 211 234 248 258 250 217 185 174 155 100 44 45 55
172 174 176 183 188 192 192 190 193 195 196 199 200 199 197 199 199 197 196 197 195 194 192 190 192 194 200 203 206 212 224 234 250 279 284 229 191 182 152 97 56 65 78
173 176 179 186 189 189 192 193 198 199 202 203 205 206 204 202 202 204 203 202 203 202 202 203 201 203 207 211 214 218 225 234 246 278 311 203 187 181 153 120 81 105 110
170 167 176 180 186 186 187 193 196 199 204 207 208 209 209 209 209 209 207 207 209 209 210 213 211 210 211 215 217 219 225 233 244 234 252 190 188 177 156 133 121 146 146
353 172 180 179 182 184 182 196 195 202 208 211 215 216 215 211 214 214 211 207 210 214 216 215 214 214 214 214 211 217 227 232 239 230 224 194 191 174 157 189 174 182 187
12 146 173 178 179 185 187 202 199 203 210 212 214 217 216 214 211 217 211 211 212 215 219 223 222 221 220 216 215 226 240 227 232 222 213 197 190 183 165 213 196 196 208
305 161 136 158 181 183 206 204 206 206 211 217 214 211 217 216 216 220 214 218 218 222 225 226 224 223 223 220 213 218 237 244 232 229 200 189 184 189 212 212 211 213 217
286 46 141 134 158 184 215 195 216 211 218 219 216 214 215 217 213 220 218 216 222 226 230 223 223 223 216 217 220 228 236 244 240 206 189 181 187 192 211 207 215 215 218
299 329 194 191 227 250 242 242 234 223 225 221 220 217 212 215 212 210 219 215 220 224 224 218 221 222 224 218 218 234 245 241 195 181 181 180 190 201 199 188 218 220 223
305 269 221 209 219 131 243 270 267 278 264 242 234 226 219 214 217 210 216 216 217 222 219 219 219 219 225 217 220 229 232 231 201 196 185 186 201 198 199 195 206 217 224
266 253 256 226 224 222 212 247 275 287 281 275 246 245 223 221 215 212 214 216 219 220 218 216 216 216 207 208 220 228 238 230 233 195 186 195 194 197 213 207 198 212 216
235 240 245 246 240 241 245 246 262 275 282 292 271 261 254 236 230 212 210 216 212 220 227 217 204 206 203 207 219 236 228 215 210 185 176 185 183 219 217 202 199 207 206
224 106 103 111 96 195 281 296 288 284 280 285 289 272 266 240 225 248 210 214 211 213 218 215 211 204 206 208 217 233 241 212 192 192 203 206 195 196 186 185 186 188 178
75 72 68 52 356 301 284 281 276 279 285 287 277 284 282 262 240 218 232 228 213 217 224 217 211 209 213 208 203 171 169 183 192 194 195 188 183 167 171 181 177 165 170
69 60 59 60 60 33 354 308 284 285 289 286 286 279 280 269 267 237 233 220 245 229 242 224 214 207 205 212 211 189 147 205 152 193 187 184 171 164 170 161 160 174 182
67 58 62 64 54 32 6 5 346 326 309 299 292 292 292 263 261 269 246 245 232 228 230 236 223 211 206 209 213 222 209 170 160 147 161 156 167 166 163 173 178 167 186
42 61 74 54 34 19 2 344 336 338 332 310 297 300 305 256 240 231 245 240 235 220 222 224 217 213 211 210 217 219 224 209 173 139 171 151 154 157 161 170 168 167 160
36 70 100 111 83 17 331 321 315 322 324 322 321 306 300 301 281 267 257 247 245 245 244 239 240 235 217 213 215 228 231 210 199 145 121 118 144 162 162 169 175 175 187